Location: Winthrop
(48.4780°N, 120.1850°W)
Time: 02:22:38
(UTC-08:00)

Vanguard 1 - Visible Passes

Search period start: 31 January 2023 00:00
Search period end: 10 February 2023 00:00
Orbit: 649 x 3831 km, 34.2° (Epoch: 30 January)

Date Brightness Start Highest point End Pass type
(mag) Time Alt. Az. Time Alt. Az. Time Alt. Az.
31 Jan 12.6 04:23:27 10° S 04:28:51 19° SE 04:36:26 10° E visible
31 Jan 12.7 06:39:20 10° SW 06:48:19 41° SSE 07:03:45 10° ESE visible
01 Feb 12.5 04:42:40 10° SSW 04:48:45 24° SE 04:57:58 10° E visible
02 Feb 12.3 05:02:24 11° SSW 05:08:46 28° SSE 05:19:12 10° E visible
03 Feb 12.3 05:22:05 10° SW 05:28:53 32° SSE 05:40:14 10° ESE visible
04 Feb 12.5 03:29:03 14° SSE 03:30:12 14° SE 03:34:27 10° ESE visible
04 Feb 12.3 05:41:58 10° SW 05:49:06 35° SSE 06:01:10 10° ESE visible
05 Feb 12.2 03:48:40 17° SSE 03:50:07 18° SE 03:56:11 10° ESE visible
05 Feb 12.3 06:02:05 10° SW 06:09:26 37° S 06:21:59 10° ESE visible
06 Feb 11.9 04:08:15 20° S 04:10:08 23° SSE 04:17:26 10° ESE visible
06 Feb 12.3 06:22:18 10° WSW 06:29:49 37° S 06:42:40 10° ESE visible
07 Feb 11.7 04:27:49 22° S 04:30:15 26° SSE 04:38:26 10° ESE visible
07 Feb 12.3 06:42:37 10° WSW 06:50:15 36° S 07:03:13 10° ESE visible
08 Feb 11.6 04:47:22 22° SSW 04:50:27 29° SSE 04:59:17 10° ESE visible
09 Feb 12.6 02:54:14 11° SE 02:54:14 11° SE 02:55:08 10° ESE visible
09 Feb 11.7 05:06:55 19° SW 05:10:44 31° S 05:20:01 10° ESE visible
